Location: Staunton
(38.1490°N, 79.0720°W)
Time: 02:18:03
(UTC-05:00)

ISS - Pass Details

Date: 20 February 2019
Orbit: 403 x 411 km, 51.6° (Epoch: 17 February)

Event Time Altitude Azimuth Distance (km) Brightness Sun altitude
Rises 06:03:27 0° 181° (S) 2,300 0.1 -11.9°
Reaches altitude 10° 06:07:15 10° 135° (SE) 1,448 -0.2 -11.2°
Maximum altitude 06:07:41 10° 127° (SE) 1,436 -0.1 -11.1°
Drops below altitude 10° 06:08:08 10° 119° (ESE) 1,449 0.1 -11.0°
Sets 06:11:56 0° 74° (ENE) 2,315 1.4 -10.3°
